Regional Weather Roundup
Issued by NWS Columbia, SC

Home | Current Version | Previous Version | Text Only | Print | Product List | Glossary On
Versions: 1 2 3 4 5 6 7 8 9 10 11 12 13 14 15 16 17 18 19 20 21 22 23 24 25 26 27 28 29 30 31 32 33 34 35 36 37 38 39 40 41 42 43 44 45 46 47 48 49 50
000
ASUS42 KCAE 241110
RWRCAE
REGIONAL WEATHER ROUNDUP
NATIONAL WEATHER SERVICE COLUMBIA SC
700 AM EDT MON APR 24 2017

NOTE: "FAIR" INDICATES FEW OR NO CLOUDS BELOW 12,000 FEET WITH NO
SIGNIFICANT WEATHER AND/OR OBSTRUCTIONS TO VISIBILITY.

NOT ALL STATIONS ARE QUALITY CONTROLLED BY THE NATIONAL
WEATHER SERVICE. USE DATA WITH CAUTION...ESPECIALLY
DEWPOINT OBSERVATIONS.

SCZ001>056-GAZ040-063>065-077-241200-
...UPSTATE SOUTH CAROLINA...

CITY           SKY/WX    TMP DP  RH WIND       PRES   REMARKS
ANDERSON       LGT RAIN  51  48  89 NE18G26   29.74F
LIBERTY        LGT RAIN  51  49  93 NE10      29.79R
SPARTANBURG    DRIZZLE   50  46  87 N13       29.82R
CLEMSON        CLOUDY    53  49  86 NE9       29.80R
GREENVILLE     RAIN      51  48  89 NE16G22   29.82R
GREENWOOD      LGT RAIN  51  48  89 NE16G28   29.77F
GREER          LGT RAIN  50  48  93 NE13G23   29.82R
ROCK HILL      CLOUDY    53  51  93 NE8       29.81S
CHESTER        CLOUDY    52  52 100 N13G18    29.80R THUNDER
LAURENS        LGT RAIN  50  50 100 N8G18     29.80R


...CENTRAL SOUTH CAROLINA...

CITY           SKY/WX    TMP DP  RH WIND       PRES   REMARKS
COLUMBIA APT   LGT RAIN  61  59  93 NE6       29.72S
COLUMBIA OWENS LGT RAIN  61  59  93 VRB5      29.74R FOG
MCENTIRE ANGB  LGT RAIN  61  61 100 CALM      29.73R
ORANGEBURG     LGT RAIN  64  63  96 NE10      29.70S
SUMTER SHAW    CLOUDY    61  59  94 E14       29.71R
NEWBERRY       CLOUDY    52  52 100 N18       29.79F
AIKEN          CLOUDY    54  54 100 N13       29.74S
BARNWELL       CLOUDY    63  63 100 N7        29.68S
MANNING        HVY RAIN  59  57  94 NE9       29.72S
LANCASTER      RAIN      54  54 100 NE7       29.80R
WINNSBORO      RAIN      55  55 100 N7        29.76R


...EASTERN AND COASTAL SOUTH CAROLINA...

CITY           SKY/WX    TMP DP  RH WIND       PRES   REMARKS
MYRTLE BEACH   LGT RAIN  72  68  88 S13       29.75
N MYRTLE BCH   CLOUDY    67  66  97 NE8       29.74F
CONWAY         TSTM      61  59  94 NE7       29.76S
MARION         RAIN      57  55  94 NE10G18   29.76F
HARTSVILLE     CLOUDY    55  54  94 NE14G20   29.76F
FLORENCE       LGT RAIN  58  58 100 NE12      29.77F
DARLINGTON     RAIN      58  56  93 NE18      29.79F FOG
CHARLESTON APT CLOUDY    70  67  90 E8        29.68F
MOUNT PLEASANT HVY RAIN  70  68  94 S6        29.70F VSB 3/4
WALTERBORO     CLOUDY    68  68 100 E5        29.68F
BEAUFORT       CLOUDY    71  69  93 W10       29.67R


...EASTERN GEORGIA...

CITY           SKY/WX    TMP DP  RH WIND       PRES   REMARKS
AUGUSTA BUSH F LGT RAIN  60  57  89 N8        29.70S
AUGUSTA DANIEL LGT RAIN  57  53  86 NE12      29.71S
THOMSON        TSTM      54  53  97 NE8       29.77S FOG
WASHINGTON     CLOUDY    55  55 100 N8        29.74F
CLAXTON        CLOUDY   N/A N/A N/A SW5       29.67S
SYLVANIA       CLOUDY    70  66  88 CALM      29.67S
STATESBORO     CLOUDY    67  67 100 SW3       29.67R
SAVANNAH       PTCLDY    68  64  87 SW6       29.67S


...SOUTHERN NORTH CAROLINA...

CITY           SKY/WX    TMP DP  RH WIND       PRES   REMARKS
CHARLOTTE      CLOUDY    52  49  89 NE10      29.83R
MONROE         LGT RAIN  53  50  89 NE13G22   29.78F
WADESBORO      RAIN      55  53  94 NE12G17   29.81F
RUTHERFORDTON  RAIN      50  50 100 N9G16     29.87R
ASHEVILLE      CLOUDY    49  46  90 SW6       29.84R

$$



USA.gov is the U.S. government's official web portal to all federal, state and local government web resources and services.